ZHONGXING-4A

Last updated on Tue Sep 22 2026 00:03:16 GMT+0000 (Coordinated Universal Time)

1 60606U 24151A 26264.58379777 -.00000368 00000+0 00000+0 0 9990 2 60606 1.0732 269.9580 0000928 15.8012 43.1091 1.00270116 7720
UTC large
Height (km)
Speed (km/s)
/
Latitude / Longitude
Inclination (degrees)
Orbital Period (minutes)
Azimuth
Elevation
Range (km)
Doppler Factor

Next 0 passes for location: London (51.5072 / 0.1276)

No passes found over London.
ZHONGXING-4A